Weather in Pisky

Ukraine / Poltava Region     50°22′31″N   33°26′53″E
temp.,
°C
wind,
m/s
gust,
m/s
humid.,
%
clouds,
%
prec.,
mm/h
press.,
hPa
HPBL,
m
22 april, thu
thu2200:00+6ssw358475 0.0 101674
03:00+5ssw368764 0.0 1016109
06:00+5s47906 0.0 1017128
09:00+10sw58705 0.0 1018375
12:00+15sw68545 0.0 10181464
15:00+16sw7849100 0.9 10172143
18:00+15ssw695736 0.3 1017820
21:00+11s4117095 0.3 1018254
23 april, fri
fri2300:00+10s51370100 0.0 1017367
03:00+10s61473100 0.0 1016420
06:00+8s41080100 0.0 1016357
09:00+10ssw3685100 0.6 1016406
12:00+10w4691100 1.2 1015530
15:00+6nw5889100 2.4 1016673
18:00+6nw5885100 0.8 1016682
21:00+5wsw228496 0.8 101623
24 april, sat
sat2400:00+4sw48927 0.0 1016157
03:00+3w4118880 0.0 1015250
06:00+2wsw48922 0.1 1015215
09:00+6w57655 0.1 1016762
12:00+2wnw71188100 0.7 1017732
15:00+7wnw81148100 1.1 10162470
18:00+6wnw611581 0.4 10181858
21:00+3w37710 0.4 1020141
25 april, sun
sun2500:00+1wsw37752 0.0 1020124
03:000wsw39803 0.0 1020170
06:000sw39800 0.0 1020178
09:00+6wsw59575 0.0 1019760
12:00+10sw6945100 0.0 10192239
15:00+8w7968100 0.2 10181236
18:00+4wsw3593100 2.8 1018382
21:00+4sw359685 6.2 1018280
26 april, mon
mon2600:00+2ssw349820 0.0 101883
03:00+1sw3597100 0.1 1017109
06:00+1w3594100 0.0 1017106
09:00+5w347299 0.0 1016375
12:00+8wsw454974 0.1 10151745
15:00+8wsw7856100 0.7 10141659
18:00+7wnw686660 1.1 10141195
21:00+3w357751 1.3 101587